DW5656 Weather Reports


Display with metric or nautical units.
time (UTC)temp
F
wind
direction
speed
MPH
gust
MPH
rain 1hr
in
rain 24hr
in
rain mn
in
humidity
%
barometer
mb
20260510225113 60 0 0.0 0.0 0.00 0.17 0.00 79 1016.0
20260510224213 60 0 0.0 0.0 0.00 0.17 0.00 79 1016.0
20260510223313 61 0 0.0 0.0 0.00 0.17 0.00 78 1016.1
20260510222352 61 0 0.0 0.0 0.00 0.17 0.00 78 1016.2
20260510221452 61 0 0.0 0.0 0.00 0.17 0.00 77 1016.1
20260510220613 61 0 0.0 0.0 0.00 0.17 0.00 77 1016.2
20260510215652 61 0 0.0 0.0 0.00 0.17 0.17 77 1016.2
20260510214752 62 215 0.0 1.0 0.00 0.17 0.17 76 1016.2
20260510213852 62 257 0.0 3.0 0.00 0.17 0.17 76 1015.8
20260510212952 62 0 0.0 0.0 0.00 0.17 0.17 76 1015.9
20260510212052 62 0 0.0 0.0 0.00 0.17 0.17 75 1015.9
20260510211152 62 0 0.0 0.0 0.00 0.17 0.17 75 1015.9
20260510210252 62 0 0.0 0.0 0.00 0.17 0.17 74 1015.8
20260510205351 62 232 1.0 1.0 0.00 0.17 0.17 74 1015.7
20260510204452 63 239 1.0 9.0 0.00 0.17 0.17 73 1015.6
20260510203612 63 243 2.0 7.0 0.00 0.17 0.17 72 1015.4
20260510202651 63 247 4.0 10.0 0.00 0.17 0.17 72 1015.3
20260510201751 63 242 2.0 14.0 0.00 0.17 0.17 71 1015.3
20260510200913 63 241 2.0 8.0 0.00 0.18 0.17 70 1015.2
20260510195951 64 238 4.0 12.0 0.00 0.18 0.17 69 1015.1
20260510195051 64 242 3.0 15.0 0.00 0.18 0.17 68 1014.9
20260510194151 64 244 2.0 12.0 0.00 0.18 0.17 68 1015.0
20260510193312 64 247 4.0 10.0 0.00 0.18 0.17 67 1014.8
20260510192351 65 246 4.0 13.0 0.00 0.18 0.17 67 1014.8
20260510191451 65 241 3.0 10.0 0.00 0.18 0.17 66 1014.7
20260510190551 65 246 3.0 16.0 0.00 0.18 0.17 64 1014.8
20260510185651 65 244 3.0 14.0 0.00 0.18 0.17 64 1014.7
20260510184751 66 243 5.0 15.0 0.00 0.18 0.17 64 1014.7
20260510183851 66 243 4.0 14.0 0.00 0.18 0.17 62 1014.6
20260510183012 67 247 2.0 12.0 0.00 0.18 0.17 60 1014.5
20260510182051 67 251 3.0 19.0 0.00 0.18 0.17 60 1014.4
20260510181151 67 265 4.0 16.0 0.00 0.18 0.17 59 1014.3
20260510180251 67 262 1.0 15.0 0.00 0.18 0.17 58 1014.1
20260510175351 68 259 1.0 10.0 0.00 0.18 0.17 61 1014.2
20260510174451 68 243 2.0 15.0 0.00 0.18 0.17 61 1014.0
20260510173551 68 236 2.0 16.0 0.00 0.18 0.17 62 1014.0
20260510172651 68 245 2.0 15.0 0.00 0.18 0.17 61 1014.0
20260510171751 68 263 5.0 17.0 0.00 0.18 0.17 59 1014.1
20260510170851 68 240 5.0 21.0 0.00 0.18 0.17 57 1014.1
20260510165951 68 243 4.0 17.0 0.00 0.18 0.17 60 1013.9
20260510165051 68 253 4.0 18.0 0.00 0.18 0.17 60 1014.1
20260510164151 68 245 2.0 18.0 0.00 0.18 0.17 61 1014.2
20260510163312 68 245 3.0 16.0 0.00 0.18 0.17 64 1014.0
20260510162351 68 242 1.0 17.0 0.00 0.18 0.17 65 1014.0
20260510161451 67 257 1.0 12.0 0.00 0.18 0.17 66 1014.1
20260510160551 67 271 2.0 15.0 0.00 0.18 0.17 67 1014.1
20260510155651 66 273 2.0 15.0 0.00 0.18 0.17 66 1014.1
20260510154751 66 282 3.0 17.0 0.00 0.18 0.17 63 1014.3
20260510153912 67 265 2.0 21.0 0.00 0.18 0.17 60 1014.2
20260510152951 68 241 4.0 17.0 0.00 0.18 0.17 62 1013.9
20260510152051 68 238 6.0 22.0 0.00 0.18 0.17 61 1013.8
20260510151151 68 242 7.0 20.0 0.00 0.18 0.17 61 1013.9
20260510150251 68 252 7.0 20.0 0.00 0.18 0.17 62 1014.0
20260510145351 68 259 4.0 21.0 0.00 0.18 0.17 61 1014.1
20260510144451 69 249 7.0 20.0 0.00 0.18 0.17 60 1014.0
20260510143551 69 251 6.0 19.0 0.00 0.18 0.17 61 1014.1
20260510142711 68 244 6.0 23.0 0.00 0.18 0.17 60 1014.2
20260510141751 68 253 3.0 19.0 0.00 0.18 0.17 63 1014.2
20260510140850 67 228 0.0 19.0 0.00 0.18 0.17 67 1014.3
20260510135950 67 259 0.0 2.0 0.00 0.18 0.17 66 1014.2
20260510135050 66 265 0.0 6.0 0.00 0.18 0.17 72 1014.2
20260510134150 64 245 0.0 4.0 0.00 0.18 0.17 74 1014.4
20260510133250 63 257 0.0 6.0 0.00 0.18 0.17 78 1014.6
20260510132351 62 244 0.0 2.0 0.02 0.18 0.17 82 1014.5
20260510131451 61 278 1.0 13.0 0.02 0.18 0.17 83 1014.6
20260510130551 62 293 0.0 13.0 0.02 0.18 0.17 81 1014.7
20260510125651 63 271 1.0 10.0 0.02 0.18 0.17 80 1015.0
20260510124755 63 269 3.0 15.0 0.02 0.18 0.17 82 1014.6
20260510123850 63 273 8.0 27.0 0.02 0.18 0.17 83 1014.7
20260510122950 64 252 9.0 27.0 0.00 0.17 0.17 78 1014.6
20260510122050 66 238 9.0 24.0 0.00 0.21 0.16 69 1014.3
20260510121150 68 256 5.0 21.0 0.00 0.27 0.16 67 1014.0
20260510120250 68 241 1.0 18.0 0.00 0.40 0.16 65 1013.9
20260510115350 68 244 1.0 10.0 0.00 0.40 0.16 66 1013.8
20260510114450 68 255 3.0 15.0 0.01 0.40 0.16 64 1014.0
20260510113550 69 254 6.0 19.0 0.01 0.40 0.16 63 1013.9
20260510112650 68 240 6.0 19.0 0.01 0.43 0.16 66 1014.0
20260510111750 68 253 3.0 20.0 0.01 0.43 0.16 67 1014.0
20260510110850 68 243 2.0 21.0 0.01 0.43 0.16 67 1014.0
20260510110011 68 260 1.0 20.0 0.01 0.43 0.16 67 1013.9
20260510105050 68 250 0.0 5.0 0.00 0.42 0.16 69 1013.9
20260510104211 66 250 1.0 5.0 0.00 0.42 0.15 75 1014.1
20260510103250 66 243 1.0 16.0 0.03 0.42 0.15 77 1014.2
20260510102350 65 235 1.0 15.0 0.03 0.42 0.15 79 1014.2
20260510101450 64 241 1.0 13.0 0.03 0.42 0.15 81 1014.3
20260510100611 63 232 3.0 15.0 0.03 0.42 0.15 83 1014.4
20260510095650 62 245 6.0 13.0 0.03 0.42 0.15 83 1014.2
20260510094750 62 242 4.0 20.0 0.03 0.42 0.15 82 1014.3
20260510093850 65 257 2.0 15.0 0.01 0.39 0.13 82 1014.1
20260510093011 64 220 3.0 18.0 0.00 0.39 0.12 84 1013.9
20260510092111 64 220 5.0 18.0 0.00 0.39 0.12 85 1013.9
20260510091150 64 217 4.0 15.0 0.00 0.40 0.12 85 1013.7
20260510090310 63 226 3.0 15.0 0.00 0.40 0.12 86 1013.7
20260510085349 63 217 5.0 15.0 0.00 0.40 0.12 86 1013.7
20260510084450 62 224 4.0 15.0 0.06 0.40 0.12 87 1013.8
20260510083550 62 235 4.0 12.0 0.06 0.40 0.12 88 1013.8
20260510082649 61 251 3.0 9.0 0.06 0.40 0.12 90 1013.7
20260510081750 61 227 3.0 9.0 0.06 0.40 0.12 90 1013.7
20260510080910 61 222 4.0 11.0 0.06 0.40 0.12 91 1013.7
20260510075950 61 209 5.0 14.0 0.06 0.40 0.12 90 1013.6
20260510075049 61 189 3.0 10.0 0.06 0.40 0.12 91 1013.5
20260510074150 61 210 3.0 10.0 0.01 0.35 0.06 91 1013.5
20260510073310 61 217 3.0 10.0 0.01 0.35 0.06 91 1013.5
20260510072349 61 221 2.0 9.0 0.01 0.35 0.06 91 1013.5
20260510071511 60 192 3.0 9.0 0.01 0.36 0.06 91 1013.5
20260510070549 60 207 4.0 9.0 0.01 0.36 0.06 91 1013.5
20260510065649 60 222 1.0 8.0 0.03 0.37 0.06 91 1013.4
20260510064749 60 205 2.0 5.0 0.06 0.37 0.06 91 1013.3
20260510063849 60 219 1.0 6.0 0.06 0.36 0.06 91 1013.3
20260510062949 60 224 1.0 8.0 0.06 0.36 0.06 91 1013.3
20260510062110 60 260 0.0 7.0 0.06 0.36 0.06 91 1013.4
20260510061149 60 222 0.0 5.0 0.06 0.36 0.06 90 1013.4
20260510060249 60 215 1.0 2.0 0.06 0.36 0.06 90 1013.3
20260510055349 60 216 1.0 6.0 0.02 0.33 0.02 89 1013.3
20260510054511 60 204 1.0 8.0 0.00 0.31 0.00 89 1013.2
20260510053549 60 232 0.0 8.0 0.00 0.31 0.00 89 1013.1
20260510052649 60 228 1.0 7.0 0.00 0.31 0.00 88 1013.0
20260510051749 60 241 0.0 8.0 0.00 0.31 0.00 88 1013.1
20260510050911 60 207 0.0 3.0 0.00 0.31 0.00 88 1013.0
20260510045949 60 205 0.0 5.0 0.00 0.31 0.00 88 1013.0
20260510045049 60 225 0.0 7.0 0.00 0.31 0.00 88 1013.0
20260510044149 60 233 1.0 4.0 0.00 0.31 0.00 88 1012.9
20260510043249 60 232 1.0 8.0 0.00 0.31 0.00 88 1012.9
20260510042349 60 231 1.0 8.0 0.00 0.31 0.00 87 1012.9
20260510041449 60 232 0.0 7.0 0.00 0.31 0.00 87 1012.8
20260510040549 61 0 0.0 0.0 0.00 0.31 0.00 87 1012.8
20260510035649 61 207 1.0 6.0 0.00 0.31 0.00 88 1012.8
20260510034749 61 194 1.0 7.0 0.00 0.31 0.00 88 1012.8
20260510033849 61 196 0.0 9.0 0.00 0.31 0.00 88 1012.9
20260510032949 61 196 0.0 5.0 0.00 0.31 0.00 88 1012.9
20260510032049 61 221 1.0 3.0 0.00 0.31 0.00 88 1012.8
20260510031210 61 208 1.0 8.0 0.00 0.31 0.00 88 1012.7
20260510030249 61 217 1.0 10.0 0.00 0.31 0.00 88 1012.7
20260510025349 61 197 1.0 6.0 0.00 0.31 0.00 87 1012.7
20260510024448 61 189 1.0 10.0 0.00 0.31 0.00 87 1012.7
20260510023548 61 193 1.0 10.0 0.00 0.31 0.00 88 1012.8
20260510022648 61 183 1.0 7.0 0.00 0.31 0.00 88 1012.9
20260510021748 61 196 0.0 7.0 0.00 0.31 0.00 88 1012.9
20260510020910 61 205 1.0 4.0 0.00 0.31 0.00 88 1012.9
20260510015948 61 194 1.0 5.0 0.00 0.31 0.00 88 1013.1
20260510015048 61 178 0.0 7.0 0.00 0.31 0.00 88 1013.2
20260510014148 62 178 0.0 5.0 0.00 0.31 0.00 88 1013.3
20260510013248 62 191 1.0 6.0 0.00 0.31 0.00 88 1013.4
20260510012348 62 217 1.0 7.0 0.00 0.31 0.00 88 1013.3
20260510011448 62 210 1.0 8.0 0.00 0.31 0.00 88 1013.3
20260510010548 62 230 0.0 4.0 0.00 0.31 0.00 88 1013.5
20260510005649 62 225 1.0 6.0 0.00 0.31 0.00 87 1013.6
20260510004748 62 208 1.0 7.0 0.00 0.31 0.00 87 1013.8
20260510003848 62 216 1.0 6.0 0.00 0.31 0.00 87 1013.8
20260510002948 62 215 0.0 5.0 0.00 0.31 0.00 87 1013.8
20260510002048 62 209 0.0 2.0 0.00 0.31 0.00 86 1013.9
20260510001209 62 204 1.0 5.0 0.00 0.31 0.00 86 1013.9
20260510000248 62 209 1.0 6.0 0.00 0.31 0.00 86 1014.0
20260509235348 62 196 0.0 6.0 0.00 0.31 0.00 86 1014.0
20260509234448 62 191 1.0 6.0 0.00 0.31 0.00 86 1014.1
20260509233548 61 180 1.0 8.0 0.00 0.31 0.00 86 1014.1
20260509232709 62 201 0.0 7.0 0.00 0.31 0.00 85 1014.1
20260509231748 62 211 1.0 8.0 0.00 0.31 0.00 85 1014.2
20260509230848 62 204 1.0 7.0 0.00 0.31 0.00 85 1014.2
20260509225948 62 186 0.0 9.0 0.00 0.31 0.00 85 1014.2